| time (UTC) | temp F | wind direction | speed knots | gust knots | rain 1hr in | rain 24hr in | rain mn in | humidity % | barometer mb |
| 20260905020025 | 92 | 232 | 5.2 | 7.8 | 0.00 | 0.00 | 0.00 | 33 | 996.9 |
| 20260905014529 | 92 | 219 | 5.2 | 8.7 | 0.00 | 0.00 | 0.00 | 33 | 996.6 |
| 20260905013029 | 93 | 216 | 7.8 | 9.6 | 0.00 | 0.00 | 0.00 | 33 | 996.6 |
| 20260905011533 | 93 | 219 | 7.0 | 8.7 | 0.00 | 0.00 | 0.00 | 33 | 996.6 |
| 20260905010032 | 93 | 221 | 9.6 | 14.8 | 0.00 | 0.00 | 0.00 | 33 | 996.6 |
| 20260905004525 | 94 | 211 | 12.2 | 13.9 | 0.00 | 0.00 | 0.00 | 32 | 996.6 |
| 20260905003031 | 94 | 219 | 13.0 | 16.5 | 0.00 | 0.00 | 0.00 | 32 | 996.5 |
| 20260905001531 | 93 | 215 | 13.0 | 19.1 | 0.00 | 0.00 | 0.00 | 34 | 996.3 |
| 20260905000030 | 95 | 194 | 12.2 | 19.1 | 0.00 | 0.00 | 0.00 | 32 | 996.3 |
| 20260904234531 | 95 | 207 | 14.8 | 20.9 | 0.00 | 0.00 | 0.00 | 32 | 996.1 |
| 20260904233017 | 94 | 218 | 16.5 | 20.0 | 0.00 | 0.00 | 0.00 | 33 | 996.1 |
| 20260904231517 | 94 | 203 | 19.1 | 22.6 | 0.00 | 0.00 | 0.00 | 33 | 995.9 |
| 20260904230029 | 93 | 209 | 20.0 | 26.1 | 0.00 | 0.00 | 0.00 | 35 | 996.0 |
| 20260904224540 | 97 | 261 | 8.7 | 13.9 | 0.00 | 0.00 | 0.00 | 28 | 995.8 |
| 20260904223045 | 97 | 240 | 4.3 | 13.0 | 0.00 | 0.00 | 0.00 | 28 | 995.9 |
| 20260904221533 | 98 | 166 | 7.8 | 15.6 | 0.00 | 0.00 | 0.00 | 27 | 996.1 |
| 20260904220021 | 97 | 61 | 1.7 | 12.2 | 0.00 | 0.00 | 0.00 | 28 | 996.3 |
| 20260904214508 | 98 | 313 | 2.6 | 13.9 | 0.00 | 0.00 | 0.00 | 28 | 996.4 |
| 20260904213015 | 97 | 257 | 1.7 | 11.3 | 0.00 | 0.00 | 0.00 | 28 | 996.5 |
| 20260904211511 | 97 | 293 | 6.1 | 13.0 | 0.00 | 0.00 | 0.00 | 28 | 996.6 |
| 20260904210012 | 97 | 153 | 7.8 | 16.5 | 0.00 | 0.00 | 0.00 | 28 | 996.8 |
| 20260904204507 | 96 | 212 | 8.7 | 13.9 | 0.00 | 0.00 | 0.00 | 31 | 997.0 |
| 20260904203100 | 96 | 155 | 7.0 | 13.9 | 0.00 | 0.00 | 0.00 | 31 | 997.2 |
| 20260904201557 | 96 | 241 | 11.3 | 17.4 | 0.00 | 0.00 | 0.00 | 30 | 997.5 |
| 20260904200058 | 96 | 229 | 9.6 | 20.0 | 0.00 | 0.00 | 0.00 | 31 | 997.6 |
| 20260904194558 | 96 | 173 | 1.7 | 10.4 | 0.00 | 0.00 | 0.00 | 31 | 997.9 |
| 20260904193047 | 94 | 162 | 7.0 | 16.5 | 0.00 | 0.00 | 0.00 | 31 | 998.2 |
| 20260904191543 | 95 | 208 | 7.8 | 13.0 | 0.00 | 0.00 | 0.00 | 31 | 998.3 |
| 20260904190010 | 94 | 249 | 3.5 | 9.6 | 0.00 | 0.00 | 0.00 | 31 | 998.6 |
| 20260904184517 | 94 | 270 | 2.6 | 13.0 | 0.00 | 0.00 | 0.00 | 32 | 998.8 |
| 20260904183050 | 94 | 261 | 2.6 | 10.4 | 0.00 | 0.00 | 0.00 | 32 | 999.0 |
| 20260904181555 | 93 | 229 | 8.7 | 13.9 | 0.00 | 0.00 | 0.00 | 33 | 999.1 |
| 20260904180100 | 93 | 184 | 4.3 | 8.7 | 0.00 | 0.00 | 0.00 | 34 | 999.3 |
| 20260904174602 | 92 | 261 | 2.6 | 7.8 | 0.00 | 0.00 | 0.00 | 35 | 999.6 |
| 20260904173050 | 91 | 225 | 6.1 | 13.0 | 0.00 | 0.00 | 0.00 | 36 | 999.8 |
| 20260904171548 | 91 | 261 | 4.3 | 11.3 | 0.00 | 0.00 | 0.00 | 37 | 999.9 |
| 20260904170139 | 90 | 249 | 6.1 | 13.0 | 0.00 | 0.00 | 0.00 | 38 | 1000.1 |
| 20260904164537 | 90 | 279 | 7.8 | 13.9 | 0.00 | 0.00 | 0.00 | 39 | 1000.0 |
| 20260904163049 | 89 | 305 | 7.8 | 16.5 | 0.00 | 0.00 | 0.00 | 40 | 1000.1 |
| 20260904161529 | 88 | 263 | 9.6 | 14.8 | 0.00 | 0.00 | 0.00 | 42 | 1000.0 |
| 20260904160026 | 87 | 299 | 7.0 | 12.2 | 0.00 | 0.00 | 0.00 | 45 | 1000.0 |
| 20260904154528 | 86 | 305 | 11.3 | 15.6 | 0.00 | 0.00 | 0.00 | 46 | 999.9 |
| 20260904153048 | 85 | 275 | 13.9 | 17.4 | 0.00 | 0.00 | 0.00 | 47 | 999.8 |
| 20260904151523 | 84 | 257 | 12.2 | 18.2 | 0.00 | 0.00 | 0.00 | 48 | 999.8 |
| 20260904150015 | 83 | 282 | 14.8 | 20.0 | 0.00 | 0.00 | 0.00 | 50 | 999.8 |
| 20260904144511 | 81 | 275 | 13.0 | 20.0 | 0.00 | 0.00 | 0.00 | 52 | 999.9 |
| 20260904143009 | 80 | 262 | 11.3 | 15.6 | 0.00 | 0.00 | 0.00 | 53 | 1000.0 |
| 20260904141533 | 79 | 261 | 13.0 | 16.5 | 0.00 | 0.00 | 0.00 | 53 | 1000.0 |
| 20260904140040 | 79 | 242 | 12.2 | 15.6 | 0.00 | 0.00 | 0.00 | 54 | 999.9 |
| 20260904134507 | 78 | 240 | 10.4 | 13.0 | 0.00 | 0.00 | 0.00 | 57 | 999.9 |
| 20260904133040 | 77 | 230 | 10.4 | 13.9 | 0.00 | 0.00 | 0.00 | 59 | 999.8 |
| 20260904131519 | 76 | 241 | 10.4 | 13.9 | 0.00 | 0.00 | 0.00 | 60 | 999.4 |
| 20260904130013 | 77 | 241 | 10.4 | 13.0 | 0.00 | 0.00 | 0.00 | 58 | 999.2 |
| 20260904124510 | 77 | 241 | 9.6 | 12.2 | 0.00 | 0.00 | 0.00 | 59 | 999.2 |
| 20260904123113 | 77 | 236 | 10.4 | 13.0 | 0.00 | 0.00 | 0.00 | 59 | 999.1 |
| 20260904121601 | 77 | 243 | 10.4 | 13.9 | 0.00 | 0.00 | 0.00 | 58 | 998.8 |
| 20260904114554 | 77 | 265 | 10.4 | 13.0 | 0.00 | 0.00 | 0.00 | 58 | 998.7 |
| 20260904113059 | 77 | 277 | 9.6 | 14.8 | 0.00 | 0.00 | 0.00 | 57 | 998.4 |
| 20260904111552 | 78 | 248 | 11.3 | 18.2 | 0.00 | 0.00 | 0.00 | 53 | 998.5 |
| 20260904110056 | 78 | 254 | 11.3 | 15.6 | 0.00 | 0.00 | 0.00 | 52 | 998.3 |
| 20260904104559 | 78 | 254 | 11.3 | 16.5 | 0.00 | 0.00 | 0.00 | 52 | 998.2 |
| 20260904103058 | 78 | 250 | 13.0 | 16.5 | 0.00 | 0.00 | 0.00 | 55 | 998.0 |
| 20260904101607 | 77 | 250 | 11.3 | 13.9 | 0.00 | 0.00 | 0.00 | 57 | 997.9 |
| 20260904100059 | 78 | 245 | 10.4 | 13.9 | 0.00 | 0.00 | 0.00 | 56 | 997.8 |
| 20260904094551 | 78 | 251 | 7.0 | 9.6 | 0.00 | 0.00 | 0.00 | 54 | 997.7 |
| 20260904093104 | 79 | 254 | 8.7 | 9.6 | 0.00 | 0.00 | 0.00 | 53 | 997.7 |
| 20260904091539 | 80 | 275 | 7.8 | 9.6 | 0.00 | 0.00 | 0.00 | 52 | 997.7 |
| 20260904090047 | 80 | 262 | 6.1 | 7.8 | 0.00 | 0.00 | 0.00 | 51 | 997.6 |
| 20260904084535 | 81 | 259 | 5.2 | 7.0 | 0.00 | 0.00 | 0.00 | 49 | 997.7 |
| 20260904083030 | 82 | 268 | 5.2 | 7.8 | 0.00 | 0.00 | 0.00 | 48 | 997.8 |
| 20260904081530 | 82 | 267 | 6.1 | 7.8 | 0.00 | 0.00 | 0.00 | 47 | 997.9 |
| 20260904080029 | 82 | 286 | 7.0 | 8.7 | 0.00 | 0.00 | 0.00 | 47 | 998.0 |
| 20260904074530 | 82 | 275 | 7.8 | 11.3 | 0.00 | 0.00 | 0.00 | 47 | 998.2 |
| 20260904073040 | 83 | 244 | 7.8 | 11.3 | 0.00 | 0.00 | 0.00 | 46 | 998.4 |
| 20260904071600 | 83 | 248 | 8.7 | 12.2 | 0.00 | 0.00 | 0.00 | 45 | 998.3 |
| 20260904070056 | 84 | 189 | 3.5 | 8.7 | 0.00 | 0.00 | 0.00 | 45 | 998.3 |
| 20260904064543 | 84 | 242 | 8.7 | 9.6 | 0.00 | 0.00 | 0.00 | 44 | 998.5 |
| 20260904063048 | 84 | 254 | 1.7 | 2.6 | 0.00 | 0.00 | 0.00 | 47 | 998.4 |
| 20260904061553 | 84 | 74 | 3.5 | 5.2 | 0.00 | 0.00 | 0.00 | 46 | 998.7 |
| 20260904060041 | 84 | 29 | 5.2 | 7.0 | 0.00 | 0.00 | 0.00 | 45 | 998.6 |
| 20260904054557 | 83 | 310 | 6.1 | 8.7 | 0.00 | 0.00 | 0.00 | 46 | 998.5 |
| 20260904053002 | 85 | 282 | 0.9 | 5.2 | 0.00 | 0.00 | 0.00 | 44 | 998.2 |
| 20260904051508 | 85 | 83 | 1.7 | 5.2 | 0.00 | 0.00 | 0.00 | 45 | 998.0 |
| 20260904050101 | 85 | 138 | 6.1 | 9.6 | 0.00 | 0.00 | 0.00 | 44 | 998.0 |
| 20260904050003 | 85 | 140 | 6.1 | 10.4 | 0.00 | 0.00 | 0.00 | 44 | 998.0 |
| 20260904044610 | 86 | 160 | 11.3 | 13.9 | 0.00 | 0.00 | 0.00 | 43 | 997.8 |
| 20260904043023 | 85 | 170 | 9.6 | 13.9 | 0.00 | 0.00 | 0.00 | 44 | 997.7 |
| 20260904041527 | 85 | 185 | 6.1 | 7.8 | 0.00 | 0.00 | 0.00 | 44 | 997.7 |
| 20260904040033 | 85 | 156 | 5.2 | 8.7 | 0.00 | 0.00 | 0.00 | 44 | 997.8 |
| 20260904034546 | 85 | 227 | 7.0 | 11.3 | 0.00 | 0.00 | 0.00 | 45 | 997.9 |
| 20260904033016 | 86 | 133 | 8.7 | 12.2 | 0.00 | 0.00 | 0.00 | 43 | 997.6 |
| 20260904031516 | 86 | 105 | 8.7 | 13.0 | 0.00 | 0.00 | 0.00 | 42 | 997.5 |
| 20260904030028 | 87 | 104 | 7.8 | 15.6 | 0.00 | 0.00 | 0.00 | 41 | 997.5 |
| 20260904024528 | 87 | 103 | 13.0 | 24.3 | 0.00 | 0.00 | 0.00 | 40 | 997.1 |
| 20260904023034 | 89 | 95 | 14.8 | 28.7 | 0.00 | 0.00 | 0.00 | 38 | 996.9 |
| 20260904021520 | 93 | 140 | 3.5 | 6.1 | 0.00 | 0.00 | 0.00 | 30 | 996.3 |